Location: Newark
(25.4800°N, 85.7200°E)
Time: 15:53:43
(UTC+00:00)

Transit 4A - Pass Details

Date: 26 August 2019
Orbit: 867 x 978 km, 66.8° (Epoch: 17 October)

Event Time Altitude Azimuth Distance (km) Brightness Sun altitude
Rises 09:41:04 0° 170° (S) 3,627 11.0 40.0°
Reaches altitude 10° 09:44:06 10° 157° (SSE) 2,697 10.3 39.3°
Maximum altitude 09:49:00 24° 105° (ESE) 1,891 9.3 38.2°
Drops below altitude 10° 09:53:57 10° 54° (NE) 2,725 10.0 37.1°
Sets 09:57:00 0° 42° (NE) 3,674 10.7 36.4°
